カタログに戻る

CZ-6A DEB

運用中PO
NORAD 61327·DEBRIS·🇨🇳 China

打ち上げ Aug 6, 2024 から Taiyuan Satellite Launch Center

Loading…

次のパス (今後24時間)

TLE

最新Source: Space-Track

元期: Sep 13, 2026, 00:40 UTC

1 61327U 24140UQ  26256.02785916  .00087147  00000-0  12417-2 0  9993
2 61327  89.0669 255.3455 0056856  53.5411 307.1073 15.54102120111866

AllMySatでCZ-6A DEBをリアルタイム追跡

Download on the App Store